Miscellaneous Local Product
Issued by NWS North Platte, NE

Home | Current Version | Previous Version | Graphics & Text | Print | Product List | Glossary On
Versions: 1 2 3 4 5 6 7 8 9 10 11 12 13 14 15 16 17 18 19 20 21 22 23 24 25 26 27 28 29 30 31 32 33 34 35 36 37 38 39 40 41 42 43 44 45 46 47 48 49 50
000
AXUS43 KLBF 221910
MISLBF


WESTERN AND NORTH CENTRAL NEBRASKA HOURLY WEATHER ROUNDUP
NATIONAL WEATHER SERVICE NORTH PLATTE NE
200 PM CDT MON SEP 22 2014

***STATIONS NOT REPORTING VARIABLES SUCH AS SKY/WEATHER OR
PRESSURE ARE PROVIDED BY THE NEBRASKA DEPARTMENT OF
ROADS...RAWS...AND APRS NETWORKS...AND ARE NOT UNDER
NATIONAL WEATHER SERVICE QUALITY CONTROL***

...OBSERVATIONS IN AND NEAR THE EASTERN PANHANDLE OF NEBRASKA...

CITY           SKY/WX    TMP DP  RH WIND       PRES   REMARKS
PINE RIDGE     CLOUDY    70  48  45 S23G30    30.05F
CHADRON        CLOUDY    69  48  47 S20       30.03F
ALLIANCE       CLOUDY    61  55  81 SE12      30.12
SIDNEY         PTSUNNY   69  53  56 S23       30.14F
WHITECLAY        N/A     70  48  44 S18         N/A
RUSHVILLE        N/A     71  45  38 S31         N/A
LISCO            N/A     75  56  50 E22         N/A
BIG SPRINGS      N/A     65  51  60 S8          N/A
$$

...OBSERVATIONS IN NORTH CENTRAL NEBRASKA...

CITY           SKY/WX    TMP DP  RH WIND       PRES   REMARKS
VALENTINE      CLOUDY    72  43  35 S25G33    30.13F
THEDFORD       PTSUNNY   72  45  37 S21G26    30.19F
AINSWORTH      CLOUDY    68  45  42 S18G25    30.17F
O`NEILL        MOSUNNY   74  50  43 S14G21    30.19F
ORD            PTSUNNY   72  48  42 S16       30.21F
BROKEN BOW     CLOUDY    74  48  39 S16G26    30.22F
SPRINGVIEW       N/A     74  49  40 SW13G20     N/A
ROSE             N/A     73  52  47 SE15        N/A
NEWPORT          N/A     74  49  40 S17         N/A
COMSTOCK         N/A     76  51  40 S15         N/A
CHAMBERS         N/A     74  49  40 SW12        N/A
$$

...OBSERVATIONS IN SOUTHWEST NEBRASKA AND FAR NORTHEAST COLORADO...

CITY           SKY/WX    TMP DP  RH WIND       PRES   REMARKS
WRAY           MOCLDY    66  59  77 E8        30.17F
HOLYOKE        FAIR      61  54  77 S10G16    30.17F
IMPERIAL       LGT RAIN  61  52  72 S12       30.18F
OGALLALA       LGT RAIN  65  50  57 S10G17    30.18F
NORTH PLATTE   CLOUDY    67  46  47 S12       30.19F
MCCOOK         LGT RAIN  75  44  33 S13G24    30.21F
LEXINGTON      MOSUNNY   72  48  43 S15       30.23F
PAXTON           N/A     63  50  61 SE12        N/A
SUTHERLAND       N/A     57  49  74 SE9         N/A
BRADY            N/A     68  48  48 CALM        N/A
GOTHENBURG       N/A     71  43  36 S14         N/A
CALLAWAY         N/A     71  53  52 S13         N/A
$$

...SOME WEATHER OBSERVATIONS FROM AROUND THE REGION...

CITY           SKY/WX    TMP DP  RH WIND       PRES   REMARKS
DENVER         PTSUNNY   72  53  51 S13       30.16F
LARAMIE        LGT RAIN  53  48  83 W10       30.28F
CHEYENNE       LGT RAIN  61  50  67 W26G33    30.23R
SCOTTSBLUFF    PTSUNNY   74  55  51 SE14G21   30.08F
RAPID CITY     MOSUNNY   75  47  36 S22G29    29.98F
PIERRE         MOSUNNY   80  46  30 S24G31    30.03F
WINNER         CLOUDY    77  46  33 S22G30    30.11F
SIOUX FALLS    PTSUNNY   71  47  42 S13       30.22F
OMAHA          MOSUNNY   71  49  45 S8        30.27F
GRAND ISLAND   PTSUNNY   72  48  42 S13G21    30.25F
KANSAS CITY    MOSUNNY   71  53  52 S3        30.28F
WICHITA        MOSUNNY   76  41  28 MISG      30.27F
HAYS           MOSUNNY   75  46  35 SE18      30.25F
LIBERAL        MOSUNNY   75  45  33 S14G23    30.28F
GOODLAND       PTSUNNY   75  51  43 S24G30    30.20F
$$



USA.gov is the U.S. government's official web portal to all federal, state and local government web resources and services.